PTSHR SBBV-SWBC

Flight info

Callsign PTSHR
Flight time N/A
Altitude 6000
Route NEVDU
Aircraft E110/L-SDG/C

Departure

Time 2026-05-04 15:40
Airport Atlas Brasil Cantanhede International Airport (SBBV)

Arrival

Time N/A
Airport Barcelos Airport (SWBC)
Time Latitude Longitude Altitude Speed Heading
2026-05-04 15:27 2.84157 -60.69346 270 ft 0 kts 152°
2026-05-04 15:34 2.84155 -60.69344 270 ft 1 kts 133°
2026-05-04 15:34 2.84167 -60.69334 270 ft 4 kts 355°
2026-05-04 15:34 2.84233 -60.69346 270 ft 9 kts 63°
2026-05-04 15:35 2.84310 -60.69259 270 ft 8 kts 298°
2026-05-04 15:35 2.84298 -60.69313 270 ft 12 kts 245°
2026-05-04 15:35 2.84263 -60.69384 270 ft 16 kts 243°
2026-05-04 15:36 2.84165 -60.69574 270 ft 22 kts 242°
2026-05-04 15:36 2.84057 -60.69789 269 ft 16 kts 249°
2026-05-04 15:37 2.84012 -60.69885 268 ft 20 kts 243°
2026-05-04 15:37 2.83972 -60.69964 268 ft 10 kts 244°
2026-05-04 15:37 2.83969 -60.70050 268 ft 15 kts 320°
2026-05-04 15:37 2.84050 -60.70069 268 ft 7 kts
2026-05-04 15:38 2.84117 -60.70018 268 ft 10 kts 64°
2026-05-04 15:38 2.84135 -60.69985 268 ft 26 kts 63°
2026-05-04 15:38 2.84328 -60.69603 270 ft 86 kts 63°
2026-05-04 15:38 2.84652 -60.69000 286 ft 107 kts 60°
2026-05-04 15:39 2.84995 -60.68473 380 ft 108 kts 57°
2026-05-04 15:39 2.85244 -60.68123 474 ft 109 kts 56°
2026-05-04 15:39 2.86167 -60.67043 872 ft 105 kts 46°
2026-05-04 15:40 2.86633 -60.66576 1013 ft 106 kts 52°
2026-05-04 15:40 2.87018 -60.65934 1197 ft 103 kts 66°
2026-05-04 15:40 2.87250 -60.65402 1329 ft 104 kts 66°